sat.trackr.live / text

‹ back to catalog

ONEWEB-0710

NORAD 55173 · 2023-004AK

PAYLOAD ACTIVE UNKNOWN

§ Identity

Operator
Country
UK
Launch date
2023-01-10
Launch site
AFETR
Launch vehicle
Mass (kg)
RCS (m²)

Purposes: comms

External: N2YO · Heavens-Above · Gunter

§ Orbital elements

Epoch: 2026-05-25T02:51:38.201760Z

Period
109.29 min
Inclination
87.9154°
Eccentricity
0.0002027
Mean motion
13.17647673 rev/d
Perigee alt
1,192.2 km
Apogee alt
1,195.3 km
Semi-major
7,571.9 km
B*
1.0638e-3
RAAN
10.4536°
Arg perigee
88.2099°
Mean anomaly
271.9264°
Rev number
16,454

§ Raw data

ONEWEB-07101 55173U 23004AK  26145.11919215  .00000426  00000+0  10638-2 0  99982 55173  87.9154  10.4536 0002027  88.2099 271.9264 13.17647673164549

JSON: /api/v1/satellites/55173 · /tle

For live sub-satellite position, see the globe view (requires WebGL).

§ Visibility from observer

Set your observer location to see the next 7 days of passes ≥ 10°. The values pass through the URL so the page stays shareable.

No JS? Fill the form by hand. The geolocation button needs JavaScript.